Location: Cisewo
(53.3833°N, 14.9000°E)
Time: 12:53:54
(UTC+00:00)

USA 229 - Pass Details

Date: 29 July 2021
Orbit: 956 x 1256 km, 63.5° (Epoch: 08 August)

Event Time Altitude Azimuth Distance (km) Brightness Sun altitude
Rises 20:23:05 0° 307° (NW) 3,876 8.4 -9.9°
Reaches altitude 10° 20:25:44 10° 311° (NW) 2,961 7.6 -10.1°
Maximum altitude 20:32:43 57° 30° (NNE) 1,343 4.4 -10.8°
Drops below altitude 10° 20:40:11 10° 109° (ESE) 3,159 5.7 -11.4°
Enters shadow 20:40:59 - 110° (ESE) 3,430 5.9 -11.5°
